Location: Clarion
(42.7316°N, 93.7330°W)
Time: 01:28:01
(UTC+00:00)

Cosmos 2266 Rocket - Pass Details

Date: 22 April 2026
Orbit: 932 x 1008 km, 82.9° (Epoch: 20 May)

Event Time Altitude Azimuth Distance (km) Brightness Sun altitude
Rises 08:26:57 0° 352° (N) 3,639 7.6 -27.1°
Reaches altitude 10° 08:29:28 10° 353° (N) 2,680 6.8 -26.8°
Maximum altitude 08:35:35 85° 81° (E) 948 3.8 -26.1°
Enters shadow 08:37:11 52° 166° (SSE) 1,151 4.1 -25.9°
